Location: Invercargill
(46.4000°S, 168.3500°E)
Time: 12:55:10
(UTC+12:00)

Daily predictions for brighter satellites

Satellite Brightness Start Highest point End
(mag) Time Altitude Azimuth Time Altitude Azimuth Time Altitude Azimuth
Atlas Centaur 2 4.5 17:47:03 10° NNW 17:49:19 13° N 17:51:46 10° NNE
Cosmos 2322 4.1 17:43:59 10° NNW 17:49:43 73° WSW 17:55:32 10° SSE
In-Cosmos 22 Rocket 4.1 17:46:08 10° N 17:51:29 82° E 17:56:55 10° SSE
CZ-4B R/B 2.0 17:49:24 10° NE 17:52:10 30° ESE 17:55:01 10° S
Cosmos 1992 Rocket 4.2 17:47:26 10° NNW 17:52:44 85° WSW 17:58:04 10° SSE
Meteor PRIRODA 4.5 17:50:57 10° SSE 17:54:25 32° E 17:57:47 10° NNE
Cosmos 1437 Rocket 3.7 17:54:10 10° SSE 17:57:24 25° ESE 18:00:37 10° NE
Cosmos 1242 Rocket 4.3 18:00:25 10° SSE 18:02:35 15° ESE 18:04:44 10° ENE
ERS-2 4.0 18:02:06 10° E 18:03:50 13° ESE 18:05:35 10° SSE
SL-16 R/B 4.4 18:00:02 10° W 18:03:53 18° SW 18:07:45 10° S
Genesis I 3.4 18:00:31 10° NNW 18:04:25 59° ENE 18:08:18 10° SE
Cosmos 1356 3.8 18:01:35 10° NNE 18:04:51 42° E 18:08:11 10° SSE
Meteor 2-15 4.5 17:58:52 10° S 18:04:58 60° ESE 18:10:58 10° NNE
IRIDIUM 103 4.4 18:01:03 10° S 18:06:18 58° E 18:11:30 10° NNE
Envisat 3.2 18:01:39 10° SSE 18:06:44 55° E 18:11:45 10° N
ATLAS 3B R/B 3.0 18:00:12 10° NNW 18:07:38 65° ENE 18:14:55 10° SE
Cosmos 2333 Rocket 2.9 18:02:17 10° NW 18:07:51 56° WSW 18:13:29 10° SSE
Cosmos 2058 3.0 18:05:09 10° N 18:09:15 59° E 18:13:25 10° SSE
SJ 16-02 2.4 18:08:09 10° S 18:11:50 24° ESE 18:15:29 10° ENE
H-2A R/B 2.7 18:08:06 10° SSE 18:12:01 75° ENE 18:15:49 10° N
SKYMED 2 4.1 18:07:55 10° N 18:12:16 67° WNW 18:16:42 10° SSW
SMAP 4.3 18:09:22 10° SE 18:13:02 22° E 18:16:39 10° NE
Cosmos 2237 Rocket 2.5 18:08:48 10° N 18:14:14 49° ENE 18:19:46 10° SE
Cosmos 1943 Rocket 3.4 18:13:28 10° S 18:17:51 22° SE 18:21:53 11° E
Cosmos 1553 Rocket 4.3 18:14:51 10° S 18:20:39 40° ESE 18:26:22 10° NE
Cosmos 1867 4.3 18:17:24 10° SSW 18:22:15 32° SE 18:26:56 11° ENE
ADEOS 4.0 18:17:19 10° S 18:22:36 66° WSW 18:27:48 10° NNW
Cosmos 1892 4.3 18:19:27 10° NW 18:23:05 37° WSW 18:26:46 10° S
IRIDIUM 106 4.3 18:19:21 10° S 18:24:41 83° E 18:29:57 10° N
Cosmos 1689 Rocket 3.3 18:22:37 10° ENE 18:24:55 22° ESE 18:27:16 10° SSE
SL-8 R/B 3.8 18:20:30 10° WNW 18:25:21 72° NNE 18:29:12 16° ESE
Cosmos 2195 Rocket 4.4 18:20:25 10° N 18:26:36 78° E 18:32:49 10° S
CSL-04 DEB 4.3 18:23:40 10° NNE 18:27:36 73° ESE 18:31:39 10° S
NOSS 0 Rocket 3.9 18:22:45 10° NNW 18:29:00 81° ENE 18:35:17 10° SSE
Cosmos 192 4.3 18:24:05 10° NNW 18:29:01 87° ENE 18:34:02 10° SSE
Cosmos 1408 4.3 18:27:27 10° NW 18:30:57 36° WSW 18:34:29 10° S
Meteor 2-19 Rocket 4.4 18:27:24 10° N 18:33:30 83° E 18:39:41 10° S
Okean O Rocket 3.1 18:34:15 17° E 18:34:26 17° E 18:37:26 10° NE
PSLV R/B 4.3 18:32:13 10° SSE 18:35:47 36° E 18:39:16 10° NNE
Lacrosse 5 1.9 18:32:05 10° SW 18:37:15 72° SE 18:42:23 10° ENE
Cosmos 2278 Rocket 2.5 18:31:48 10° SSW 18:37:32 72° WNW 18:43:12 10° NNE
Cosmos 2369 Rocket 3.5 18:36:43 10° S 18:40:41 19° SE 18:41:48 18° ESE
Cosmos 1777 Rocket 4.0 18:36:10 10° SSW 18:41:32 89° WNW 18:46:48 10° NNE
Cosmos 1933 4.1 18:40:51 10° S 18:44:37 32° ESE 18:48:20 10° NE
Cosmos 2219 Rocket 3.6 18:42:11 10° WNW 18:47:18 34° SW 18:52:27 10° SSE
CZ-4B R/B 3.9 18:44:38 15° SE 18:48:12 29° E 18:52:47 10° NNE
Cosmos 1825 3.7 18:47:04 10° NW 18:50:37 37° WSW 18:54:14 10° S
CZ-2C R/B 2.9 18:47:08 10° N 18:52:47 78° WNW 18:58:27 10° SSW
COSMOS 2428 4.1 18:49:09 10° WNW 18:54:26 37° SW 18:59:45 10° SSE
NOAA 11 4.2 18:50:10 10° SSE 18:55:41 63° ENE 19:01:07 10° N
Cosmos 2098 Rocket 4.4 18:53:00 10° NW 18:55:42 27° WSW 18:58:18 10° SSW
Cosmos 1898 Rocket 4.3 18:55:18 10° S 18:59:57 30° ESE 19:00:48 29° ESE
CZ-4B R/B 4.2 18:57:15 10° S 19:01:33 46° WSW 19:05:39 10° NW
PSLV R/B 4.4 18:58:25 10° N 19:02:32 64° WNW 19:06:42 10° SSW
Meteor 2-3 Rocket 3.9 18:57:57 10° NNE 19:03:20 47° E 19:08:48 10° SSE
Cosmos 1655 Rocket 4.2 18:58:09 10° NNE 19:04:12 49° E 19:10:24 10° SSE
Cosmos 1461 3.4 18:59:55 10° SW 19:04:13 65° WNW 19:08:41 10° NNE
PAYLOAD B 4.3 18:58:42 10° SSE 19:04:16 56° E 19:09:44 10° N
YAOGAN 6 4.5 19:02:10 10° S 19:05:22 30° WSW 19:08:31 10° NW
Cosmos 2221 4.3 19:02:19 10° SSW 19:06:15 34° W 19:10:10 10° NNW
Cosmos 405 Rocket 4.5 19:09:06 10° NW 19:12:33 32° WSW 19:16:06 10° S
Cosmos 1980 4.3 19:11:01 10° NW 19:16:36 56° WSW 19:22:07 11° SSE
ATLAS CENTAUR R/B 1.3 19:13:45 10° SSW 19:18:04 60° SE 19:18:33 55° E
Cosmos 1939 Rocket 2.9 19:17:52 39° SE 19:19:15 63° E 19:23:24 10° N
Cosmos 1633 3.0 19:17:12 10° NNW 19:20:45 60° W 19:23:34 16° S
BREEZE-M DEB (TANK) 3.7 19:20:02 10° WSW 19:21:21 24° SW 19:21:21 24° SW
Cosmos 1606 4.3 19:19:03 10° SSW 19:22:37 37° W 19:26:08 10° NNW
CENTAUR R/B 4.4 19:19:13 10° WSW 19:24:38 22° SSW 19:28:40 13° SSE
CZ-2C R/B 2.8 19:25:08 40° SE 19:26:39 59° E 19:31:22 10° N
Meteor 2-21 4.4 19:21:15 10° N 19:27:30 85° E 19:33:48 10° S
Radarsat 4.5 19:22:19 10° SSE 19:27:38 84° ENE 19:32:53 10° NNW
USA 234 3.2 19:24:16 30° SE 19:27:51 88° NE 19:34:28 10° NW
AQUARIUS 4.2 19:24:25 13° SSE 19:28:32 84° WSW 19:33:04 10° NNW
Radarsat Rocket 3.8 19:23:25 10° SSE 19:29:37 79° ENE 19:35:27 10° NNW
SL-16 R/B 2.1 19:24:08 10° NNW 19:29:46 69° ENE 19:32:00 38° SE
Cosmos 2151 3.3 19:26:15 10° NNW 19:30:28 66° W 19:34:18 13° S
NOAA 12 4.4 19:26:23 10° S 19:31:46 68° WSW 19:37:02 10° NNW
CZ-4B DEB 4.4 19:29:02 10° S 19:34:34 70° WSW 19:40:01 10° NNW
BREEZE-M DEB 4.0 19:32:18 10° W 19:33:43 26° W 19:33:43 26° W
Meteor 2-14 Rocket 4.4 19:29:08 10° N 19:35:20 87° W 19:41:37 10° S
ERS-2 2.6 19:33:13 10° N 19:36:52 59° WNW 19:40:34 10° SSW
FengYun 1-2 T 4.2 19:32:00 10° SSE 19:37:38 82° WSW 19:43:09 10° NNW
Cosmos 1242 Rocket 3.7 19:34:04 10° SSW 19:37:40 45° W 19:41:13 10° NNW
Cosmos 2266 Rocket 3.8 19:36:29 10° N 19:42:34 80° E 19:48:49 10° S
Cosmos 2297 3.7 19:36:59 10° SSW 19:42:48 84° WNW 19:46:43 22° NNE
CORIOLIS 4.4 19:42:30 10° S 19:48:00 69° WSW 19:53:27 10° NNW
SJ 16-02 2.7 19:46:22 10° SW 19:50:33 39° WNW 19:54:41 10° N
SMAP 4.0 19:46:04 10° S 19:50:36 47° WSW 19:55:06 10° NW
S3M 4.4 19:45:50 10° SSW 19:52:12 65° W 19:58:32 10° N
Cosmos 1937 Rocket 4.2 19:49:00 10° SSW 19:52:36 40° S 19:52:36 40° S
H-2A R/B 4.4 19:58:12 20° NNW 19:58:12 20° NNW 19:59:26 10° NNW
Cosmos 1151 Rocket 4.5 19:52:39 10° SSW 19:54:48 28° SSW 19:54:48 28° SSW
Cosmos 2237 Rocket 3.8 19:53:28 10° WNW 19:58:32 32° SW 20:02:47 14° S
ATLAS 3B R/B 3.9 19:51:49 10° WNW 19:58:47 40° SW 20:03:08 21° SSE
Cosmos 1943 Rocket 2.2 19:56:32 10° SSW 20:02:16 79° WNW 20:03:29 56° N
Cosmos 1607 4.2 19:58:41 10° SW 20:04:47 66° WNW 20:07:10 38° N
Cosmos 1867 4.2 20:00:51 10° SW 20:06:07 54° WNW 20:07:41 40° N
MOS 1-B Rocket 4.5 20:00:45 10° N 20:06:20 58° W 20:12:30 10° SSW
SL-8 R/B 4.2 20:03:08 10° W 20:07:10 56° WSW 20:07:10 56° WSW
Cosmos 1763 Rocket 3.7 20:04:05 10° NNW 20:08:35 65° NNW 20:08:35 65° NNW
Cosmos 2315 Rocket 4.0 20:03:37 10° S 20:10:01 85° W 20:16:23 10° N
Okean O Rocket 2.4 20:11:42 50° WNW 20:11:42 50° WNW 20:15:30 10° NNW
Lacrosse 5 3.8 20:15:39 10° WSW 20:19:51 26° NW 20:21:42 21° NNW
Cosmos 2369 Rocket 3.0 20:19:52 10° SSW 20:23:38 43° SSW 20:23:38 43° SSW
CZ-4B R/B 4.1 20:26:32 27° SSW 20:28:55 43° WSW 20:33:55 10° NW
NOSS 3-1 (C) 4.4 20:35:34 10° NNW 20:42:38 58° N 20:42:38 58° N
ATLAS CENTAUR R/B 4.4 20:53:49 10° WSW 20:54:44 13° W 20:54:44 13° W
USA 234 4.2 21:11:37 41° SW 21:11:37 41° SW 21:16:42 10° W
SL-16 R/B 4.2 21:09:51 10° W 21:13:55 24° SW 21:13:55 24° SW
